Showing default

ESSA 7 (TOS-E), 3345

Orbit data source: Space-Track

ESSA 7 (TOS-E), 3345 is a payload satellite owned by ESSA (US) in SSO that was launched on Fri, 16 Aug 1968 UTC via a THOR DELTA N launch vehicle from the Air Force Western Test Range (AFWTR). Payload-class satellites include a variety of spacecraft equipped with specific instruments for various scientific and technological missions. These include communications satellites like Starlink; space stations such as the ISS; scientific satellites like the Hubble; Earth observation satellites from companies like Planet Labs, Umbra, and HawkEye 360; GPS; miniature CubeSats for education and research; and military/defense satellites.

Loading next visibility...
Identifier
3345, 1968-069A
Orbit
SSO
Country
Flag of USUS
Related business
Manufacturer
RCA/East Windsor
Mission
Non-operational spacecraft
Bus & Motor
TIROS I, Unknown motor
Mass
154 kg wet, 154 kg dry
Launch date (UTC)
1968-08-16 (57 years ago)
Launch vehicle
THOR DELTA N
Launch site
Air Force Western Test Range (AFWTR)
Object type
Payload
Rocket body
Debris
Shape & HBR
Unknown
Radar Cross Section
Medium (>0.1 m² and <1 m²)

Expand to show TLE details & history
Last TLE update: 13 hours ago

TLE from 13 hours ago
0 ESSA 7 (TOS-E)
1 03345U 68069A   25310.82568883 -.00000039  00000-0  29495-4 0  9999
2 03345 101.5271 278.3490 0026369 241.3845 147.4307 12.53006593617138
Epoch: 2025-11-06T19:48Z
TLE epoch observation values (Epoch: 2025-11-06T19:48:59.514Z)
Latitude
28.38191°
Longitude
-71.47251°
Altitude
1,472.584 km
Speed
7.121 km/s
True Right ascension
18h 08m 12s
True Declination
28° 15' 05"
Sunlit
Object was in daylight at epoch
Visualization orbit readout
Latitude
Unknown
Longitude
Unknown
Altitude
Unknown
Speed
Unknown
Apparent Right ascension
Unknown
Apparent Declination
Unknown
Sunlit
N/A
Visualization observer readout
Local Sidereal Time
04:57:18
Azimuth
Unknown
Elevation
Unknown
Doppler factor
Unknown
Orbital elements
Apogee altitude
1,470.115 km
Perigee altitude
1,428.834 km
Semi-major axis
7,827.611 km
Eccentricity
0.00264
Inclination
101.5271°
RAAN
278.349°
Arg. of periapsis
241.3845°
True anomaly
147.59291°
Mean anomaly
147.4307°
Eccentric anomaly
147.51185°
Mean motion
3.134 °/min
Orbital period
114.87 mins
BSTAR
0.000029495
Loading maneuver chart data...
Computing Atmospheric mass density...
Loading historical data...
Loading historical data...
Loading historical data...
Loading historical data...
Loading historical data...
Loading historical data...
Loading historical data...

Documentation

Showing up to 5 results
|